Terminal Aerodrome Forecast
Issued by NWS Lake Charles, LA

Home | Current Version | Previous Version | Text Only | Print | Product List | Glossary On
Versions: 1 2 3 4 5 6 7 8 9 10 11 12 13 14 15 16 17 18 19 20
000
FTUS44 KLCH 051603 AAA
TAFLFT
TAF AMD
KLFT 051603Z 0516/0612 VRB04KT P6SM VCSH SCT020 BKN030
      TEMPO 0516/0518 VRB17G22KT 5SM TSRA BKN020 BKN028CB
     FM051800 25006KT 6SM -RA VCTS SCT018 BKN050CB
     FM052300 28003KT P6SM SCT035 SCT110=

USA.gov is the U.S. government's official web portal to all federal, state and local government web resources and services.